Terminal Aerodrome Forecast
Issued by NWS

Home | Current Version | Previous Version | Text Only | Print | Product List | Glossary On
Versions: 1 2 3 4 5 6 7 8 9 10 11 12
000
FTUS42 TJSJ 201100
TAFNCM
TAF
TNCM 201121Z 2012/2112 07005KT P6SM FEW018
     FM201300 10010KT P6SM SCT022
     FM202300 07006KT P6SM FEW020=

USA.gov is the U.S. government's official web portal to all federal, state and local government web resources and services.